Date String (YYYY-MM-DD hh:mm:ss) UTC,Instrument flags,absolute air pressure of the measurement (hPa),sample flow rate (lpm),inlet stack bypass flow (lpm),air temperature of the measurement (°C),ambient temperature measured by the external sensor (°C),aerosol sample conditioner tube jacket temperature (°C),OPC LED temperature (°C),internal box temperature (°C),relative humidity of the measurement (%),span deviation,mass concentration of particles derived from Lorenz-Mie calculation of OPC scattering (μg/m³),mass concentration of particles derived from Lorenz-Mie calculation of OPC scattering (μg/m³),mass concentration of particles derived from Lorenz-Mie calculation of OPC scattering (μg/m³)
DateTimeUTC,F1_M11,P_M11,Q1_M11,Q2_M11,T1_M11,T2_M11,T3_M11,T4_M11,T5_M11,U1_M11,ZSPAN_M11,X0_M11,X2_M11,X1_M11
2024-01-05 18:00:00,SystemResetWarning,0823.2,5.00,000.00,019.9,019.3,000.0,028.1,021.2,15.5,0000.0,0008.01,0003.92,0003.58
2024-01-05 18:01:00,SystemResetWarning,0823.1,5.00,000.00,019.9,019.3,000.0,028.1,021.2,15.6,0000.0,0007.79,0003.89,0003.55
2024-01-05 18:02:00,SystemResetWarning,0823.1,5.00,000.00,019.9,019.4,000.0,028.1,021.3,15.7,0000.0,0007.43,0003.87,0003.55
2024-01-05 18:03:00,SystemResetWarning,0823.1,5.00,000.00,019.9,019.4,000.0,028.1,021.3,15.7,0000.0,0007.46,0003.87,0003.54
2024-01-05 18:04:00,SystemResetWarning,0823.1,5.00,000.00,019.9,019.4,000.0,028.2,021.3,15.7,0000.0,0007.49,0003.88,0003.53
2024-01-05 18:05:00,SystemResetWarning,0823.0,5.00,000.00,019.9,019.4,000.0,028.2,021.3,15.8,0000.0,0007.51,0003.88,0003.53
2024-01-05 18:06:00,SystemResetWarning,0823.0,5.01,000.00,019.9,019.4,000.0,028.2,021.3,15.8,0000.0,0007.77,0003.90,0003.56
2024-01-05 18:07:00,SystemResetWarning,0823.0,5.00,000.00,019.9,019.4,000.0,028.2,021.3,15.8,0000.0,0008.20,0003.93,0003.57
2024-01-05 18:08:00,SystemResetWarning,0822.9,5.00,000.00,019.9,019.4,000.0,028.2,021.3,15.8,0000.0,0008.13,0003.95,0003.59
2024-01-05 18:09:00,SystemResetWarning,0823.1,5.00,000.00,020.0,019.4,000.0,028.2,021.3,15.8,0000.0,0007.93,0003.97,0003.62
2024-01-05 18:10:00,SystemResetWarning,0822.9,5.00,000.00,020.0,019.4,000.0,028.2,021.4,15.8,0000.0,0007.76,0004.01,0003.66
2024-01-05 18:11:00,SystemResetWarning,0822.9,5.00,000.00,020.0,019.5,000.0,028.2,021.4,15.8,0000.0,0007.13,0004.02,0003.68
2024-01-05 18:12:00,SystemResetWarning,0823.0,5.00,000.00,020.0,019.5,000.0,028.2,021.4,15.8,0000.0,0007.76,0004.04,0003.72
2024-01-05 18:13:00,SystemResetWarning,0823.0,5.00,000.00,020.0,019.5,000.0,028.2,021.4,15.8,0000.0,0008.08,0004.07,0003.75
2024-01-05 18:14:00,SystemResetWarning,0822.8,5.00,000.00,020.0,019.5,000.0,028.3,021.5,15.8,0000.0,0008.39,0004.09,0003.78
2024-01-05 18:15:00,SystemResetWarning,0822.9,4.99,000.00,020.0,019.5,000.0,028.3,021.5,15.8,0000.0,0008.31,0004.08,0003.81
2024-01-05 18:16:00,SystemResetWarning,0823.1,4.99,000.00,020.1,019.5,000.0,028.3,021.5,15.8,0000.0,0008.28,0004.09,0003.82
2024-01-05 18:17:00,SystemResetWarning,0823.1,4.99,000.00,020.1,019.6,000.0,028.3,021.5,15.8,0000.0,0008.08,0004.10,0003.82
2024-01-05 18:18:00,SystemResetWarning,0822.8,5.01,000.00,020.1,019.6,000.0,028.3,021.5,15.7,0000.0,0007.72,0004.10,0003.84
2024-01-05 18:19:00,SystemResetWarning,0822.8,5.01,000.00,020.1,019.6,000.0,028.3,021.5,15.7,0000.0,0007.69,0004.10,0003.85
2024-01-05 18:20:00,SystemResetWarning,0822.7,5.01,000.00,020.1,019.6,000.0,028.3,021.5,15.7,0000.0,0007.77,0004.12,0003.86
2024-01-05 18:21:00,SystemResetWarning,0822.7,4.99,000.00,020.1,019.6,000.0,028.3,021.6,15.7,0000.0,0007.74,0004.11,0003.87
2024-01-05 18:22:00,SystemResetWarning,0823.0,4.99,000.00,020.1,019.7,000.0,028.4,021.6,15.7,0000.0,0007.84,0004.10,0003.86
2024-01-05 18:23:00,SystemResetWarning,0822.6,5.00,000.00,020.2,019.7,000.0,028.4,021.6,15.6,0000.0,0007.33,0004.11,0003.85
2024-01-05 18:24:00,SystemResetWarning,0822.7,4.99,000.00,020.2,019.7,000.0,028.4,021.6,15.5,0000.0,0006.85,0004.09,0003.83
2024-01-05 18:25:00,SystemResetWarning,0822.6,5.00,000.00,020.2,019.7,000.0,028.4,021.6,15.5,0000.0,0006.24,0004.06,0003.81
2024-01-05 18:26:00,SystemResetWarning,0822.8,5.00,000.00,020.2,019.7,000.0,028.4,021.6,15.4,0000.0,0006.25,0004.05,0003.79
2024-01-05 18:27:00,SystemResetWarning,0822.8,5.00,000.00,020.2,019.7,000.0,028.4,021.6,15.3,0000.0,0006.14,0004.02,0003.78
2024-01-05 18:28:00,SystemResetWarning,0822.9,5.00,000.00,020.2,019.7,000.0,028.4,021.7,15.3,0000.0,0006.07,0004.00,0003.77
2024-01-05 18:29:00,SystemResetWarning,0823.1,5.00,000.00,020.2,019.8,000.0,028.5,021.7,15.3,0000.0,0006.03,0003.97,0003.74
2024-01-05 18:30:00,SystemResetWarning,0823.0,5.00,000.00,020.3,019.8,000.0,028.5,021.7,15.2,0000.0,0006.05,0003.94,0003.69
2024-01-05 18:31:00,SystemResetWarning,0823.1,5.00,000.00,020.3,019.8,000.0,028.5,021.7,15.2,0000.0,0005.97,0003.91,0003.66
2024-01-05 18:32:00,SystemResetWarning,0823.1,5.00,000.00,020.3,019.8,000.0,028.5,021.7,15.1,0000.0,0005.91,0003.89,0003.62
2024-01-05 18:33:00,SystemResetWarning,0822.8,5.01,000.00,020.3,019.8,000.0,028.5,021.7,15.0,0000.0,0005.82,0003.87,0003.59
2024-01-05 18:34:00,SystemResetWarning,0822.5,5.00,000.00,020.3,019.8,000.0,028.5,021.7,15.0,0000.0,0005.64,0003.83,0003.56
2024-01-05 18:35:00,SystemResetWarning,0822.6,5.00,000.00,020.3,019.8,000.0,028.5,021.7,14.9,0000.0,0005.45,0003.77,0003.53
2024-01-05 18:36:00,SystemResetWarning,0822.5,5.00,000.00,020.3,019.8,000.0,028.5,021.7,14.8,0000.0,0005.48,0003.76,0003.50
2024-01-05 18:37:00,SystemResetWarning,0822.4,5.00,000.00,020.3,019.8,000.0,028.6,021.7,14.8,0000.0,0005.49,0003.75,0003.49
2024-01-05 18:38:00,SystemResetWarning,0822.4,5.00,000.00,020.4,019.9,000.0,028.6,021.8,14.7,0000.0,0005.54,0003.74,0003.46
2024-01-05 18:39:00,SystemResetWarning,0822.4,5.00,000.00,020.4,019.9,000.0,028.6,021.8,14.7,0000.0,0005.47,0003.71,0003.44
2024-01-05 18:40:00,SystemResetWarning,0822.4,5.00,000.00,020.4,019.9,000.0,028.6,021.9,14.8,0000.0,0005.39,0003.70,0003.43
2024-01-05 18:41:00,SystemResetWarning,0822.5,5.00,000.00,020.4,019.9,000.0,028.6,021.9,14.8,0000.0,0005.32,0003.69,0003.43
2024-01-05 18:42:00,SystemResetWarning,0822.4,5.00,000.00,020.4,019.9,000.0,028.6,021.9,14.7,0000.0,0005.26,0003.67,0003.42
2024-01-05 18:43:00,SystemResetWarning,0822.4,5.00,000.00,020.4,019.9,000.0,028.6,021.9,14.7,0000.0,0005.36,0003.65,0003.42
2024-01-05 18:44:00,SystemResetWarning,0822.4,5.00,000.00,020.5,019.9,000.0,028.6,021.9,14.6,0000.0,0006.23,0003.65,0003.41
2024-01-05 18:45:00,SystemResetWarning,0822.4,5.00,000.00,020.5,020.0,000.0,028.7,021.9,14.6,0000.0,0006.42,0003.67,0003.42
2024-01-05 18:46:00,SystemResetWarning,0822.4,5.00,000.00,020.5,020.0,000.0,028.7,021.9,14.5,0000.0,0006.61,0003.71,0003.43
2024-01-05 18:47:00,SystemResetWarning,0822.4,5.00,000.00,020.5,020.0,000.0,028.7,021.9,14.4,0000.0,0007.53,0003.72,0003.44
2024-01-05 18:48:00,SystemResetWarning,0822.4,5.00,000.00,020.5,020.0,000.0,028.7,022.0,14.3,0000.0,0007.59,0003.72,0003.43
2024-01-05 18:49:00,SystemResetWarning,0822.3,4.99,000.00,020.5,020.0,000.0,028.7,022.0,14.3,0000.0,0007.58,0003.73,0003.44
2024-01-05 18:50:00,SystemResetWarning,0822.3,5.00,000.00,020.5,020.0,000.0,028.7,022.0,14.3,0000.0,0007.64,0003.76,0003.46
2024-01-05 18:51:00,SystemResetWarning,0822.2,5.00,000.00,020.6,020.0,000.0,028.7,021.9,14.3,0000.0,0007.63,0003.75,0003.47
2024-01-05 18:52:00,SystemResetWarning,0822.2,5.00,000.00,020.6,020.1,000.0,028.8,022.0,14.3,0000.0,0008.22,0003.77,0003.48
2024-01-05 18:53:00,SystemResetWarning,0822.1,4.99,000.00,020.6,020.1,000.0,028.8,022.0,14.3,0000.0,0008.74,0003.80,0003.50
2024-01-05 18:54:00,SystemResetWarning,0822.1,5.00,000.00,020.6,020.1,000.0,028.8,022.0,14.3,0000.0,0008.80,0003.82,0003.51
2024-01-05 18:55:00,SystemResetWarning,0822.1,5.00,000.00,020.6,020.1,000.0,028.8,022.0,14.3,0000.0,0008.29,0003.87,0003.53
2024-01-05 18:56:00,SystemResetWarning,0822.1,5.00,000.00,020.6,020.1,000.0,028.8,022.1,14.2,0000.0,0008.32,0003.89,0003.54
2024-01-05 18:57:00,SystemResetWarning,0822.1,5.00,000.00,020.6,020.1,000.0,028.8,022.1,14.2,0000.0,0008.22,0003.87,0003.53
2024-01-05 18:58:00,SystemResetWarning,0822.0,5.00,000.00,020.6,020.1,000.0,028.8,022.0,14.1,0000.0,0007.55,0003.87,0003.54
2024-01-05 18:59:00,SystemResetWarning,0822.0,5.00,000.00,020.6,020.1,000.0,028.9,022.0,14.1,0000.0,0007.93,0003.88,0003.55
